METAR Formatted Surface Weather Observation
Issued by NWS Pago Pago

Home | Current Version | Previous Version | Text Only | Print | Product List | Glossary On
Versions: 1 2 3 4 5 6 7 8 9 10 11 12 13 14 15 16 17 18 19 20 21 22 23 24 25 26 27 28 29 30 31 32 33 34 35 36 37 38 39 40 41 42 43 44 45 46 47 48 49 50
000
SAZS31 NSTU 201458
MTRPPG
METAR NSTU 201454Z 09014KT 10SM SCT016 BKN036 OVC080 25/23 A2990 RMK
 SLP125 60003 8/87/ T02530234 56010=


USA.gov is the U.S. government's official web portal to all federal, state and local government web resources and services.